GEFSCGP_con_probscp_360.txt.gz
Probability
0 0 1 2 2 1 0 0 0 0 0 0 0 0 1 2 3 3 3 2 3 4 7 10 12 16 19 23 25 26 25 24 21 20 17 13 10 8 7 9 11 10 9 8
0 0 0 1 1 0 0 0 0 0 0 0 0 0 0 1 3 3 3 3 3 5 8 12 15 17 19 22 25 25 25 24 24 24 22 18 13 9 6 7 10 11 10 8
0 0 0 0 0 0 0 0 0 0 0 0 0 0 1 1 3 3 4 4 5 7 11 15 18 19 20 22 24 24 25 26 28 28 25 19 14 11 9 9 12 15 15 13
0 0 0 0 0 0 0 0 0 0 0 0 0 1 2 3 3 4 5 6 7 10 14 16 19 21 22 23 24 26 28 30 30 29 26 20 16 15 16 16 18 21 20 20
0 0 0 0 0 0 0 0 0 0 0 0 0 1 3 5 5 5 7 9 11 13 15 16 20 24 24 22 24 29 34 36 34 31 28 23 19 18 20 21 23 24 24 23
0 0 0 0 0 0 0 0 0 0 0 0 0 0 2 4 5 6 8 12 14 15 14 15 22 27 27 23 24 30 36 39 38 34 29 24 21 19 20 23 26 26 25 24
0 0 0 0 0 0 0 0 0 0 0 0 0 0 2 4 6 8 10 13 15 14 13 16 25 31 30 27 27 32 35 37 38 36 31 27 24 21 22 25 27 26 25 24
0 0 0 0 0 0 0 0 0 0 0 0 0 1 4 6 7 9 11 14 15 14 13 17 24 29 31 30 30 34 36 37 37 37 36 33 29 26 27 29 28 27 26 26
0 0 0 0 0 0 0 0 0 0 0 0 0 1 4 8 9 8 9 13 15 16 16 18 22 27 30 30 31 35 41 42 40 39 39 37 34 32 34 34 31 29 29 29
0 0 0 0 0 0 0 0 0 0 0 0 0 1 5 9 10 8 8 11 14 17 18 20 23 26 28 28 29 35 43 45 44 42 40 38 39 38 38 37 34 31 30 29
0 0 0 0 0 0 0 0 0 0 0 0 0 2 6 10 11 9 9 10 12 15 19 22 24 26 28 28 29 35 41 44 44 43 41 41 43 44 42 40 37 34 32 30
0 0 0 0 0 0 0 0 0 0 0 0 1 3 7 12 12 11 9 8 9 12 17 21 23 27 30 32 34 37 40 41 43 44 42 40 42 44 43 41 39 38 36 34
0 0 0 0 0 0 0 0 0 0 0 0 1 4 9 12 12 10 8 7 8 10 14 20 27 34 39 42 42 41 42 42 43 44 41 37 38 40 41 40 39 38 37 35
0 0 0 0 0 0 0 0 0 0 0 0 1 5 10 12 11 7 7 9 11 13 17 24 35 45 50 53 52 48 44 43 45 45 41 37 35 36 37 36 35 35 34 31
0 0 0 0 0 0 0 0 0 1 0 0 1 4 8 11 9 6 7 11 15 17 21 30 41 49 53 55 56 51 45 43 43 44 41 37 36 35 34 34 34 35 34 30
0 1 1 0 0 0 0 0 0 0 0 0 1 3 6 8 7 7 10 14 18 19 22 32 43 48 48 50 50 48 44 41 41 41 38 36 35 34 32 32 34 37 36 32
1 2 2 1 0 0 0 0 0 1 1 0 1 2 4 5 7 10 14 18 22 22 25 33 41 45 45 44 43 43 41 40 41 41 39 37 35 34 32 32 33 36 37 36
1 2 2 1 0 0 0 0 0 1 1 1 1 1 2 5 10 14 17 20 23 24 28 34 37 40 41 41 41 41 40 40 42 44 44 42 39 37 37 36 35 37 39 39
0 1 1 1 0 0 1 1 1 1 1 2 2 2 3 7 13 19 22 23 24 26 31 34 33 34 38 41 42 42 40 40 42 44 44 43 41 40 41 39 38 39 40 40
0 0 0 0 0 1 2 2 1 2 5 7 7 7 8 10 16 24 29 29 28 29 32 33 30 30 35 39 40 39 38 39 40 41 41 39 37 38 39 38 39 39 39 39
0 0 0 0 0 1 3 3 5 9 15 16 15 14 16 17 22 30 33 32 30 29 30 30 30 31 33 36 36 36 37 38 39 39 37 35 34 35 36 36 38 39 38 37
1 2 2 2 3 5 6 7 10 17 21 19 18 20 22 24 28 32 34 32 30 28 26 26 30 34 34 34 33 35 38 39 40 40 38 36 35 35 35 36 36 37 37 35
3 4 5 6 6 8 9 9 12 16 18 16 15 18 22 26 28 31 32 31 28 27 25 25 28 33 35 33 31 33 36 38 41 43 42 39 37 36 35 35 33 33 33 32
7 8 9 10 9 10 10 10 11 13 13 12 12 15 19 23 27 30 31 31 29 27 25 25 27 30 31 30 29 30 33 36 40 43 43 40 36 34 33 33 30 28 29 29
11 12 14 14 13 12 12 9 9 12 13 13 14 16 18 22 27 30 31 32 29 26 25 25 26 27 26 26 27 28 30 34 37 39 39 36 32 29 30 28 25 23 23 23
13 15 17 18 16 15 12 9 8 12 14 15 17 19 19 22 26 29 30 30 28 25 25 26 26 26 25 25 26 26 29 35 36 35 35 32 29 27 26 23 20 19 17 17

GEFSCGP_con_probscp_366.txt.gz
Probability
0 0 0 0 0 0 0 0 0 0 0 0 1 0 1 2 5 7 9 9 5 1 1 3 8 11 10 10 8 5 5 6 6 6 5 4 3 2 1 1 0 1 4 6
0 0 0 0 0 0 0 0 0 0 0 0 1 0 0 1 3 6 9 10 8 4 3 5 10 12 12 12 11 9 7 7 7 7 5 5 4 3 2 2 1 2 4 6
0 0 0 0 0 0 0 0 0 0 0 0 0 0 0 0 1 3 7 11 12 10 8 10 13 15 16 16 15 12 9 8 8 8 8 7 7 6 4 3 3 3 4 6
0 0 0 0 0 0 0 0 0 0 0 0 0 0 0 0 0 2 5 9 13 14 13 12 15 18 21 20 18 13 10 9 8 9 10 10 9 8 6 4 4 4 5 7
0 0 0 0 0 0 0 0 0 0 0 0 0 0 0 0 1 2 4 6 10 14 15 14 15 19 22 23 20 15 11 9 8 9 10 10 9 9 7 6 6 6 7 7
0 0 0 0 0 0 0 0 0 0 0 0 0 0 0 1 2 3 5 6 10 14 18 17 15 17 22 25 23 17 13 11 10 11 11 11 9 7 6 7 8 9 10 10
0 0 0 0 0 0 0 0 0 0 0 0 0 0 1 3 5 6 7 9 12 16 19 18 14 13 18 22 22 18 15 14 14 13 13 12 10 8 6 7 10 12 13 14
0 0 0 0 0 0 0 0 0 0 0 0 0 1 3 5 6 8 11 13 14 16 17 15 11 9 11 16 18 16 14 13 13 13 13 12 12 11 9 9 11 13 14 14
0 0 0 0 0 0 0 0 0 0 0 0 0 1 4 6 7 8 11 13 14 13 13 11 9 8 9 12 15 15 13 12 12 12 12 12 13 12 11 11 12 12 13 13
0 0 0 0 0 0 0 0 0 0 0 0 0 1 3 6 6 6 8 12 13 12 10 10 10 11 12 13 14 15 15 15 14 14 13 13 13 13 12 12 12 11 11 11
0 0 0 0 0 0 0 0 0 0 0 0 0 0 2 5 6 6 7 10 12 11 10 11 13 15 17 16 14 16 19 19 18 17 15 14 13 13 12 11 9 8 9 10
0 0 0 0 0 0 0 0 0 0 0 0 0 1 3 6 8 7 7 8 10 10 10 12 15 17 19 17 15 18 21 22 21 19 17 16 14 12 11 9 6 6 7 8
0 0 0 0 0 0 0 0 0 0 0 0 0 2 5 8 9 8 6 7 8 8 10 13 15 17 18 17 16 19 22 23 22 20 20 19 17 13 11 10 8 7 6 6
0 0 0 0 0 0 0 0 0 0 0 0 1 3 7 9 9 8 7 7 9 11 13 15 14 14 14 15 17 20 22 22 21 21 22 22 19 14 12 12 11 9 7 5
0 0 0 0 0 0 0 0 0 0 0 0 1 3 6 8 8 6 7 10 14 18 18 16 13 12 12 14 18 20 21 19 19 20 20 19 17 14 12 12 11 9 7 6
0 0 0 0 0 0 0 0 0 0 0 0 0 2 4 5 5 5 7 12 20 24 22 17 13 13 14 16 19 20 18 16 16 16 16 16 15 14 13 12 10 8 7 6
0 0 0 0 0 0 0 0 0 0 0 0 1 2 4 4 4 3 6 12 19 23 20 17 16 16 17 19 20 19 17 16 15 15 15 15 16 16 16 14 11 8 7 7
0 0 0 0 0 0 0 0 0 0 0 1 2 4 5 6 5 5 6 9 14 17 16 16 17 18 18 19 20 18 16 16 17 17 17 17 18 20 20 18 14 11 9 9
0 0 0 0 0 0 0 1 1 1 1 1 4 6 6 7 9 9 9 9 11 13 14 14 16 17 16 15 17 17 15 15 16 17 18 20 21 23 23 21 18 15 13 12
0 0 0 0 0 1 1 3 3 2 1 2 5 7 7 8 10 11 11 12 13 14 15 15 16 16 14 13 16 17 16 15 16 17 18 20 22 24 24 22 21 19 17 16
0 0 0 0 1 2 4 5 4 3 3 4 6 8 8 8 9 10 11 12 13 14 16 16 16 15 13 13 16 19 18 17 17 18 18 21 24 24 23 21 21 20 18 17
1 1 0 0 2 3 5 6 5 5 7 7 7 9 10 10 10 10 11 12 13 14 16 17 17 16 14 14 16 19 19 18 18 19 20 23 25 24 22 19 18 18 17 16
3 2 1 1 2 3 4 5 5 7 9 10 10 12 13 13 13 13 13 13 15 16 16 17 17 16 15 14 16 17 19 20 19 18 19 20 21 21 19 16 15 16 16 15
4 4 4 2 3 4 5 5 7 8 10 12 13 14 16 16 15 15 14 15 17 18 19 19 18 17 16 14 14 16 18 20 18 15 15 16 16 16 15 14 14 14 14 14
2 3 4 4 3 5 7 8 9 10 12 13 14 14 15 16 15 14 14 15 17 19 21 20 18 17 16 14 13 14 16 17 15 11 11 12 13 14 14 13 12 10 9 10
0 2 4 3 2 4 7 9 10 11 11 13 13 13 13 14 14 13 13 15 17 19 20 20 18 17 17 15 13 13 15 16 13 10 9 10 12 14 14 13 10 8 6 6

GEFSCGP_con_probscp_372.txt.gz
Probability
0 0 0 0 0 0 0 0 0 0 0 0 0 0 0 0 0 0 0 0 0 0 1 2 2 1 0 0 1 3 5 5 4 3 2 1 1 1 3 5 5 5 4 4
0 0 0 0 0 0 0 0 0 0 0 0 0 0 0 0 0 0 0 0 0 1 2 3 3 1 1 1 2 3 4 4 3 3 3 2 1 2 3 5 6 6 6 6
0 0 0 0 0 0 0 0 0 0 0 0 0 0 0 0 0 0 0 0 1 2 3 3 3 2 3 3 4 5 4 3 2 2 2 2 2 2 4 5 5 5 6 6
0 0 0 0 0 0 0 0 0 0 0 0 0 0 0 0 1 1 1 1 1 2 2 2 3 5 5 6 6 6 4 2 1 1 1 1 2 3 4 4 4 4 5 5
0 0 0 0 0 0 0 0 0 0 0 0 0 0 0 0 1 2 3 2 2 2 2 2 4 6 6 6 6 6 4 3 2 1 1 1 2 3 3 3 3 3 3 4
0 0 0 0 0 0 0 0 0 0 0 0 0 0 0 0 1 3 3 2 1 1 2 4 5 6 7 7 7 6 4 3 3 3 3 2 2 2 1 2 3 3 3 3
0 0 0 0 0 0 0 0 0 0 0 0 0 0 0 0 1 3 3 2 1 2 4 4 5 5 7 7 6 6 4 4 4 4 5 5 4 3 1 1 3 4 3 3
0 0 0 0 0 0 0 0 0 0 0 0 0 0 1 2 2 3 2 1 1 3 5 5 5 6 7 6 5 5 5 4 4 5 6 6 5 4 1 1 4 5 4 4
0 0 0 0 0 0 0 0 0 0 0 0 0 0 2 3 3 3 1 0 0 2 5 6 7 7 7 6 5 4 5 5 6 6 7 7 6 5 3 3 5 7 5 4
0 0 0 0 0 0 0 0 0 0 0 0 0 0 1 3 3 3 1 0 0 1 3 6 7 7 7 7 7 6 5 6 7 7 7 6 6 5 5 5 6 6 5 4
0 0 0 0 0 0 0 0 0 0 0 0 0 0 0 1 2 2 2 1 1 0 2 3 4 5 6 7 8 8 7 6 6 7 7 6 5 5 5 4 5 6 6 6
0 0 0 0 0 0 0 0 0 0 0 0 0 0 0 0 1 1 2 2 2 1 1 2 4 5 6 6 6 7 7 6 6 7 6 5 4 4 4 3 4 6 6 6
0 0 0 0 0 0 0 0 0 0 0 0 0 0 0 0 0 0 1 1 2 1 1 2 3 4 5 5 4 4 5 6 6 6 5 4 4 4 4 4 5 6 5 5
0 0 0 0 0 0 0 0 0 0 0 0 0 0 0 0 0 0 0 2 3 3 3 2 2 2 4 4 3 2 4 6 7 6 4 3 4 4 5 5 6 6 5 4
0 0 0 0 0 0 0 0 0 0 0 0 0 0 0 0 0 0 2 4 6 4 3 3 1 1 4 6 6 4 4 6 7 6 3 2 4 5 5 6 7 7 6 5
0 0 0 0 0 0 0 0 0 0 0 0 0 0 1 0 0 1 4 7 7 5 3 3 2 1 3 7 8 6 6 6 6 6 4 3 3 4 5 7 9 11 10 9
0 0 0 0 0 0 0 0 1 2 2 1 0 1 3 3 2 3 6 7 7 5 3 3 2 1 3 5 6 6 6 6 5 5 5 4 3 3 5 8 11 13 14 14
0 0 0 0 0 0 0 1 3 5 6 4 2 4 7 7 6 5 6 7 5 4 3 4 4 3 3 4 5 6 7 7 6 7 7 6 5 4 6 9 12 13 14 15
0 0 0 0 0 0 0 1 3 5 6 6 6 7 8 7 5 5 5 5 4 3 4 5 5 5 5 4 4 6 8 8 8 9 10 10 8 7 7 8 10 12 13 14
0 0 0 0 0 0 0 1 2 2 3 5 8 9 7 4 3 3 4 4 4 5 5 5 5 5 4 4 5 7 8 8 7 8 11 12 11 9 7 5 6 8 11 13
0 0 0 0 0 0 1 3 4 3 2 3 6 7 6 3 2 2 3 4 6 7 6 4 4 4 4 5 6 8 8 7 6 6 8 10 10 9 7 4 4 5 8 11
0 0 0 0 0 0 1 3 4 3 2 2 4 6 5 3 1 1 3 5 6 6 6 5 5 5 6 5 6 8 9 7 6 6 7 7 8 9 8 6 5 6 8 9
0 0 0 0 0 0 0 1 1 1 1 1 3 4 3 2 2 2 3 6 6 6 7 7 7 7 7 6 7 9 10 9 8 7 7 6 7 8 8 8 7 7 9 9
0 0 0 0 0 0 0 0 0 1 1 2 3 3 2 2 2 2 4 5 6 7 7 8 8 8 8 7 8 10 12 11 9 8 8 7 7 6 8 8 7 8 9 10
0 0 0 0 0 0 0 0 1 3 4 4 3 4 3 3 3 3 4 5 6 6 5 6 8 9 9 9 9 10 12 11 10 9 9 8 7 6 7 7 7 7 7 8
0 0 0 0 0 0 0 1 2 5 6 5 4 5 5 5 4 3 4 5 6 5 4 4 7 10 11 10 9 10 11 11 10 10 10 9 7 6 6 7 6 6 5 5

GEFSCGP_con_probscp_378.txt.gz
Probability
0 0 0 0 0 0 0 0 0 0 0 0 0 0 0 0 1 0 0 0 2 5 6 6 6 4 4 5 6 8 11 13 15 18 17 14 11 11 11 11 10 8 9 10
0 0 0 0 0 0 0 0 0 0 0 0 0 0 0 0 1 1 0 1 3 5 6 6 5 2 3 6 7 9 11 14 16 18 18 17 14 12 12 12 11 9 8 8
0 0 0 0 0 0 0 0 0 0 0 0 0 0 0 0 1 2 1 1 3 4 5 5 4 2 3 6 9 10 12 14 15 16 17 18 16 14 13 13 12 10 9 8
0 0 0 0 0 0 0 0 0 0 0 0 0 0 0 0 1 2 2 2 3 3 4 5 6 5 5 7 9 12 14 14 13 13 15 16 15 12 12 12 12 12 11 11
0 0 0 0 0 0 0 0 0 0 0 0 0 0 0 0 0 2 3 4 4 4 5 8 9 9 9 8 8 11 14 15 13 13 14 14 12 10 11 12 11 11 12 12
0 0 0 0 0 0 0 0 0 0 0 0 0 0 0 0 1 2 3 5 6 6 8 10 11 11 11 10 9 11 15 17 17 16 15 13 10 10 12 12 11 10 10 11
0 0 0 0 0 0 0 0 0 0 0 0 0 0 1 1 1 1 3 5 7 7 8 10 10 11 13 14 15 16 19 21 21 19 17 15 13 13 13 13 12 11 10 11
0 0 0 0 0 0 0 0 0 0 0 0 0 0 1 2 1 1 3 6 7 7 7 7 7 9 13 16 19 21 24 25 25 24 23 21 20 17 16 14 13 12 12 13
0 0 0 0 0 0 0 0 0 0 0 0 0 0 1 1 1 1 3 7 8 6 5 5 5 6 10 14 18 20 23 26 28 27 26 26 25 23 20 17 15 14 16 16
0 0 0 0 0 0 0 0 0 0 0 0 0 0 0 0 0 2 4 7 8 6 5 4 4 4 6 10 14 18 22 26 28 28 27 26 26 26 24 21 19 19 19 18
0 0 0 0 0 0 0 0 0 0 0 0 0 0 0 0 1 3 5 7 7 6 4 4 3 3 5 8 13 19 24 27 28 28 27 26 26 27 26 24 23 22 18 16
0 0 0 0 0 0 0 0 0 0 0 0 0 0 1 1 2 3 4 5 7 6 4 3 4 5 7 9 12 18 24 28 29 29 28 27 27 27 27 26 25 22 17 13
0 0 0 0 0 0 0 0 0 0 0 0 0 0 1 2 2 2 2 4 7 8 7 6 8 10 11 11 12 16 22 27 30 30 30 29 28 27 25 24 25 23 19 16
0 0 0 0 0 0 0 0 0 0 0 0 0 0 1 3 4 3 3 4 8 11 11 12 14 15 15 15 13 15 20 25 28 30 30 29 27 25 22 22 23 21 19 19
0 0 0 0 0 0 0 0 0 0 0 0 0 0 1 3 5 6 6 6 9 13 15 15 17 18 19 19 17 16 20 24 27 27 26 25 23 21 20 20 20 19 18 18
0 0 0 0 0 0 0 0 0 0 0 0 0 0 1 4 6 8 9 8 10 13 14 15 17 19 19 20 19 20 23 27 28 26 24 20 19 18 18 18 18 18 17 15
0 0 0 0 0 0 0 0 0 0 2 2 1 1 3 6 9 11 10 10 13 15 14 16 18 18 18 19 22 24 27 31 30 26 22 19 17 16 17 16 16 16 15 14
0 0 0 0 0 0 0 0 1 2 3 4 3 3 6 9 12 13 14 14 16 18 20 20 21 20 19 21 24 26 27 29 28 24 21 19 18 17 15 15 16 15 14 14
0 0 0 0 0 0 0 1 3 3 4 5 6 6 9 12 13 16 18 20 20 22 26 27 26 24 24 25 26 25 24 24 23 21 20 18 18 17 16 15 15 15 14 13
2 2 1 0 0 0 1 3 4 4 4 6 9 10 12 12 11 14 21 24 25 26 29 30 29 27 26 26 24 21 20 19 19 19 17 17 16 16 15 13 13 13 13 13
3 3 2 0 0 0 1 3 3 4 6 9 11 13 14 13 12 15 20 24 26 28 28 29 29 27 25 22 20 18 16 15 15 16 16 16 15 13 11 11 12 12 12 12
3 3 2 0 0 1 1 2 3 5 8 11 13 13 14 15 17 18 19 22 25 25 25 25 25 24 22 20 18 17 15 13 13 15 16 16 14 11 10 11 13 12 11 11
3 3 2 1 1 2 2 1 4 7 9 12 13 13 14 16 18 18 19 21 24 24 22 20 20 21 20 19 17 17 16 16 16 16 15 14 13 11 11 13 14 11 9 9
4 4 2 1 1 2 2 2 5 9 11 11 13 14 16 17 17 18 19 20 22 21 19 18 18 20 21 20 18 17 17 19 19 18 16 15 14 13 14 15 14 11 9 9
4 3 2 1 1 2 3 4 7 11 11 11 12 15 16 16 18 20 21 21 19 18 17 18 20 22 21 20 18 17 18 19 20 21 19 16 15 15 15 15 13 10 9 10
3 2 2 2 2 3 5 5 7 11 11 11 13 16 15 15 19 22 24 21 19 17 16 18 22 24 22 20 19 18 18 19 20 22 20 16 14 15 15 15 12 8 7 7

GEFSCGP_con_probscp_384.txt.gz
Probability
2 2 2 1 0 0 0 0 0 0 0 0 0 0 0 0 2 4 5 5 8 10 10 7 8 10 13 18 26 28 26 25 26 27 26 24 23 23 22 22 20 17 14 13
2 2 1 0 0 0 0 0 0 0 0 0 0 0 1 2 4 5 7 8 9 11 11 9 9 9 11 17 24 27 27 27 27 27 26 25 23 22 23 24 24 20 16 15
1 1 1 0 0 0 0 0 0 0 0 1 0 1 3 6 8 8 8 9 11 12 14 14 13 10 10 15 22 26 30 33 31 28 26 24 23 23 23 26 28 24 18 17
0 0 0 0 0 0 0 0 0 0 0 0 0 1 5 9 10 10 9 10 11 13 16 17 17 14 12 13 18 26 36 41 39 35 30 26 24 24 25 29 31 29 23 20
0 0 0 0 0 0 0 0 0 0 0 0 0 1 5 9 10 10 11 10 11 13 16 18 18 17 15 14 19 30 43 50 48 43 38 32 27 26 28 32 35 36 33 29
0 0 0 0 0 0 0 0 0 1 1 0 0 1 4 7 10 11 12 11 11 13 16 16 17 18 18 19 24 36 49 55 53 48 44 39 34 31 32 34 38 41 40 39
0 0 0 0 0 0 0 0 0 1 1 0 0 1 4 8 11 12 12 11 10 12 15 16 16 18 20 25 31 41 53 59 56 51 48 46 41 38 36 36 38 42 42 42
0 0 0 0 0 0 0 0 0 1 1 0 0 1 6 10 11 10 9 8 8 9 12 15 17 17 21 29 37 45 54 59 56 51 49 48 45 42 41 39 37 38 40 40
0 0 0 0 0 0 0 0 0 0 0 0 0 2 6 9 9 7 5 6 7 8 10 13 14 15 19 28 37 46 52 54 53 50 48 46 46 45 43 41 36 34 38 40
0 0 0 0 0 0 0 0 0 0 0 0 0 1 4 6 7 5 4 6 7 8 9 12 13 14 17 23 33 42 48 49 48 47 46 46 46 46 45 43 38 35 37 39
0 0 0 0 0 0 0 0 0 0 0 0 0 1 3 4 5 5 4 6 8 9 11 14 16 17 18 20 27 37 43 45 45 45 45 46 47 48 47 45 42 39 37 35
0 0 0 0 0 0 0 0 0 0 0 0 1 2 3 3 3 4 5 6 10 12 14 18 22 24 22 21 25 34 41 44 45 44 44 45 48 49 48 46 43 40 35 31
0 0 0 0 0 0 0 0 0 0 0 0 1 3 3 1 2 4 6 8 12 16 18 22 27 29 28 28 30 35 40 42 43 43 41 41 44 46 45 42 40 37 33 29
1 1 0 0 0 0 0 0 0 0 0 0 1 3 3 1 2 5 8 11 14 18 21 24 31 36 39 40 40 41 41 40 40 41 39 38 40 42 42 40 37 33 28 25
0 0 0 0 0 0 0 1 1 0 0 0 1 3 3 2 3 6 10 12 16 20 23 29 36 41 44 45 45 46 43 39 39 40 38 37 40 42 41 39 35 31 26 23
0 0 0 0 0 0 1 1 0 0 0 1 2 4 4 4 5 8 10 13 18 22 27 33 40 44 44 45 47 48 45 40 39 39 38 37 39 41 40 37 33 30 27 26
0 0 0 0 0 0 1 1 1 1 2 2 4 6 7 6 7 9 11 15 20 24 29 35 42 45 45 46 48 47 44 42 40 40 39 38 38 38 38 35 32 30 28 27
0 0 0 0 0 1 2 2 3 4 5 6 7 9 10 9 8 9 13 19 26 29 33 38 42 44 46 48 50 47 44 43 41 39 39 38 37 36 34 32 30 29 28 27
1 1 1 0 1 2 3 3 3 5 7 7 8 10 11 11 11 15 21 28 33 36 40 43 42 43 47 50 51 47 43 42 40 37 37 36 34 32 30 29 28 28 27 27
2 3 2 2 2 3 5 4 3 4 6 6 7 9 11 13 18 26 32 36 39 43 45 46 44 44 47 51 51 45 39 38 37 34 34 33 31 29 27 26 26 25 24 23
3 3 3 3 3 5 7 7 7 9 12 10 9 10 14 19 27 34 38 39 41 42 43 44 45 45 48 51 49 43 38 36 34 32 31 30 29 26 24 23 22 19 18 18
4 3 3 3 5 6 7 8 11 16 19 16 14 15 19 25 31 35 36 37 37 37 37 40 43 46 48 49 48 44 41 38 34 32 31 30 27 22 19 18 16 14 14 14
5 4 5 5 6 7 7 8 12 16 17 16 14 15 20 25 29 31 33 33 33 32 32 36 40 44 47 47 46 43 41 39 36 35 34 31 25 19 16 14 13 11 11 10
6 7 8 9 9 7 7 8 10 11 11 10 11 12 16 21 25 28 30 30 29 29 32 35 38 41 44 45 43 42 41 39 37 36 35 30 24 18 16 15 12 10 8 7
7 9 11 12 11 8 8 9 9 8 7 7 10 11 13 18 23 26 28 29 29 29 33 37 39 40 42 43 41 41 41 39 37 35 33 28 22 18 17 15 12 10 7 5
8 9 12 13 12 10 10 9 8 7 5 7 10 12 13 18 22 24 26 29 31 31 34 39 40 39 41 41 39 40 41 39 36 34 31 25 20 17 16 15 13 10 8 5